Stations météo

Publicité
Nevers, France (7260): Température de l'air & dewpoint: 17.04.2019 04:00:00 - 23.04.2019 04:00:00 (CEST)Nevers, France (7260): Température de l'air 5cm: 17.04.2019 04:00:00 - 23.04.2019 04:00:00 (CEST)Nevers, France (7260): Température de l'air -20cm & Température de l'air -100cm: 17.04.2019 04:00:00 - 23.04.2019 04:00:00 (CEST)Nevers, France (7260): Vitesse du vent & gusts: 17.04.2019 04:00:00 - 23.04.2019 04:00:00 (CEST)Nevers, France (7260): Direction du vent: 17.04.2019 04:00:00 - 23.04.2019 04:00:00 (CEST)Nevers, France (7260): reduced air pressure: 17.04.2019 04:00:00 - 23.04.2019 04:00:00 (CEST)Nevers, France (7260): visibility: 17.04.2019 04:00:00 - 23.04.2019 04:00:00 (CEST)Nevers, France (7260): Ensoleillement: 17.04.2019 04:00:00 - 23.04.2019 04:00:00 (CEST)Nevers, France (7260): Quantités de précipitations: 17.04.2019 04:00:00 - 23.04.2019 04:00:00 (CEST)
Date & Time tt [°C] td [°C] tt 5cm [°C] tt -20cm [°C] tt -100cm [°C] ff [km/h] ff [knt] fx [km/h] fx [knt] dd ppp [hPa] vv [km] sd [min] rr [mm]
23.04.2019 04:00:00 10,8 8,4 8,2 14,2 10,5 0 0 3 2 N 997,1 20 0 0,0
23.04.2019 03:00:00 11,3 8,7 9,2 14,2 10,5 0 0 3 1 N 997,3 20 0 0,0
23.04.2019 02:00:00 11,8 8,6 9,5 14,2 10,5 0 0 5 3 N 997,9 20 0 0,0
23.04.2019 01:00:00 12,2 8,3 9,2 14,1 10,5 2 1 4 2 E 998,1 20 0 0,0
23.04.2019 00:00:00 13,7 8,5 9,7 14,1 10,5 0 0 4 2 N 998,5 20 0 0,0
22.04.2019 23:00:00 14,0 8,6 11,1 14,1 10,5 2 1 5 3 S 998,8 20 0 0,0
22.04.2019 22:00:00 15,3 8,5 11,6 14,0 10,5 0 0 6 3 N 999,1 20 0 0,0
22.04.2019 21:00:00 18,8 8,2 13,9 13,9 10,4 3 2 13 7 N 998,8 20 24 0,0
22.04.2019 20:00:00 21,4 9,6 20,0 13,7 10,4 10 5 21 12 NE 999,2 20 60 0,0
22.04.2019 19:00:00 22,7 8,8 22,5 13,6 10,4 13 7 21 11 NE 999,5 20 45 0,0
22.04.2019 18:00:00 24,0 8,8 26,3 13,5 10,4 9 5 26 14 NE 999,9 20 60 0,0
22.04.2019 17:00:00 24,1 9,7 28,1 13,3 10,4 12 7 22 12 E 1000,3 20 60 0,0
22.04.2019 16:00:00 23,6 9,2 28,7 13,2 10,4 4 2 10 6 ENE 1001,5 20 58 0,0
22.04.2019 15:00:00 23,0 11,1 27,1 13,2 10,4 4 2 23 12 N 1002,6 20 58 0,0
22.04.2019 14:00:00 21,3 11,0 25,0 13,1 10,4 7 4 18 10 WNW 1003,7 20 44 0,0
22.04.2019 13:00:00 20,9 11,2 23,7 13,1 10,4 4 2 15 8 W 1004,6 20 53 0,0
22.04.2019 12:00:00 18,7 11,0 22,7 13,1 10,4 5 3 18 10 NW 1005,7 20 41 0,0
22.04.2019 11:00:00 17,7 10,6 19,3 13,2 10,4 7 4 14 8 NW 1006,1 20 41 0,0
22.04.2019 10:00:00 14,1 9,9 12,9 13,2 10,4 4 2 8 5 N 1007,2 20 25 0,0
22.04.2019 09:00:00 10,5 9,4 8,1 13,3 10,4 3 1 4 2 NNW 1008,6 20 0 0,0
22.04.2019 08:00:00 8,2 7,1 4,7 13,4 10,4 0 0 6 3 N 1009,3 18 0 0,0
22.04.2019 07:00:00 6,2 4,8 4,2 13,4 10,4 0 0 4 2 N 1009,7 20 0 0,0
22.04.2019 06:00:00 7,5 5,8 5,2 13,5 10,4 0 0 4 2 N 1009,9 20 0 0,0
22.04.2019 05:00:00 9,1 6,9 6,0 13,5 10,4 0 0 11 6 N 1010,6 20 0 0,0
22.04.2019 04:00:00 11,0 8,6 8,2 13,5 10,3 3 1 12 7 S 1010,8 20 0 0,0
22.04.2019 03:00:00 9,2 7,1 6,7 13,5 10,3 2 1 5 3 N 1011,9 20 0 0,0
22.04.2019 02:00:00 10,9 7,6 8,0 13,5 10,3 0 0 7 4 N 1012,8 20 0 0,0
22.04.2019 01:00:00 11,9 8,4 8,6 13,5 10,3 4 2 9 5 N 1013,2 20 0 0,0
22.04.2019 00:00:00 13,4 8,7 10,7 13,5 10,3 3 2 16 9 NNW 1013,8 20 0 0,0
21.04.2019 23:00:00 14,8 8,9 13,9 13,4 10,3 14 8 24 13 SSW 1014,4 20 0 0,0
21.04.2019 22:00:00 16,0 10,1 11,7 13,3 10,3 16 9 26 14 S 1014,4 20 0 0,0
21.04.2019 21:00:00 15,4 10,0 12,4 13,3 10,3 0 0 6 3 N 1014,0 20 0 0,0
21.04.2019 20:00:00 18,4 10,0 16,2 13,2 10,3 3 2 9 5 NNE 1013,8 20 27 0,0
21.04.2019 19:00:00 20,9 9,2 21,3 13,0 10,3 5 3 10 6 WNW 1013,9 20 43 0,0
21.04.2019 18:00:00 20,2 8,8 21,1 12,9 10,3 6 3 16 9 NW 1014,6 20 10 0,0
21.04.2019 17:00:00 21,2 9,4 26,1 12,8 10,3 10 5 21 11 WNW 1014,9 20 58 0,0
21.04.2019 16:00:00 20,8 9,7 22,3 12,7 10,3 6 4 22 12 W 1015,5 20 22 0,0
21.04.2019 15:00:00 20,5 9,4 21,3 12,7 10,3 11 6 21 12 WNW 1016,2 20 43 0,0
21.04.2019 14:00:00 19,1 9,8 21,0 12,6 10,2 13 7 23 13 W 1017,1 20 37 0,0
21.04.2019 13:00:00 18,7 8,4 22,4 12,7 10,2 14 8 22 12 WSW 1017,8 20 58 0,0
21.04.2019 12:00:00 16,6 9,8 19,6 12,7 10,2 6 3 11 6 WSW 1018,4 20 32 0,0
21.04.2019 11:00:00 14,5 9,9 15,5 12,8 10,2 5 3 11 6 S 1018,9 20 30 0,0
21.04.2019 10:00:00 11,8 9,9 10,8 12,9 10,2 7 4 13 7 SSE 1019,1 20 4 0,0
21.04.2019 09:00:00 9,4 8,9 6,4 13,0 10,2 7 4 10 6 SE 1019,2 20 10 0,0
21.04.2019 08:00:00 5,8 5,4 3,5 13,1 10,2 0 0 3 1 N 1019,5 12 0 0,0
21.04.2019 07:00:00 4,6 4,0 2,7 13,2 10,2 0 0 3 1 N 1019,5 2,4 0 0,0
21.04.2019 06:00:00 4,0 3,4 1,9 13,2 10,2 0 0 2 1 N 1019,7 0,4 0 0,0
21.04.2019 05:00:00 4,9 4,3 2,2 13,3 10,2 0 0 4 2 N 1019,9 0,6 0 0,0
21.04.2019 04:00:00 5,4 4,8 3,5 13,4 10,2 0 0 3 2 N 1020,2 2,1 0 0,0
21.04.2019 03:00:00 5,3 4,7 2,7 13,4 10,2 2 1 3 2 SSE 1020,5 0,2 0 0,0
21.04.2019 02:00:00 5,7 5,0 3,1 13,5 10,2 0 0 5 3 N 1021,2 0,3 0 0,0
21.04.2019 01:00:00 7,0 6,1 3,8 13,5 10,2 0 0 5 3 N 1021,7 6 0 0,0
21.04.2019 00:00:00 8,2 7,0 4,6 13,5 10,1 0 0 4 2 N 1022,0 10 0 0,0
20.04.2019 23:00:00 11,4 9,6 6,5 13,4 10,1 0 0 15 8 N 1022,1 20 0 0,0
20.04.2019 22:00:00 10,2 8,6 6,5 13,4 10,1 0 0 2 1 N 1022,2 20 0 0,0
20.04.2019 21:00:00 12,8 10,3 9,8 13,4 10,1 0 0 4 2 N 1022,0 20 5 0,0
20.04.2019 20:00:00 17,4 11,4 16,8 13,3 10,1 3 2 9 5 NW 1021,9 20 35 0,0
20.04.2019 19:00:00 18,2 11,5 17,0 13,3 10,1 9 5 23 12 NW 1021,9 20 19 0,0
20.04.2019 18:00:00 18,9 9,1 15,5 13,2 10,1 9 5 21 11 SW 1021,8 20 39 0,0
20.04.2019 17:00:00 15,4 11,0 11,9 13,1 10,1 10 5 63 34 S 1023,2 20 0 1,6
20.04.2019 16:00:00 18,2 6,7 16,6 13,0 10,1 35 19 53 29 ESE 1023,5 20 6 0,0
20.04.2019 15:00:00 19,6 6,3 15,3 12,9 10,0 22 12 47 25 SE 1023,1 20 0 0,0
20.04.2019 14:00:00 23,1 9,8 24,8 12,8 10,0 5 3 15 8 W 1022,8 20 52 0,0
20.04.2019 13:00:00 22,3 9,1 27,7 12,8 10,1 6 3 13 7 S 1023,8 20 60 0,0
20.04.2019 12:00:00 20,3 10,1 25,7 12,8 10,1 7 4 13 7 SSW 1024,5 20 60 0,0
20.04.2019 11:00:00 18,6 9,1 21,0 12,9 10,0 5 3 10 5 S 1025,1 20 58 0,0
20.04.2019 10:00:00 15,9 9,6 13,9 12,9 10,0 4 2 12 6 SW 1025,5 20 51 0,0
20.04.2019 09:00:00 12,7 8,4 8,9 13,0 10,0 7 4 10 5 S 1025,9 20 25 0,0
20.04.2019 08:00:00 9,5 7,1 5,8 13,1 10,0 0 0 8 4 N 1025,8 20 0 0,0
20.04.2019 07:00:00 8,1 5,2 5,5 13,1 10,0 0 0 9 5 N 1025,5 20 0 0,0
20.04.2019 06:00:00 9,5 7,9 4,3 13,2 10,0 10 6 24 13 NNW 1025,7 18 0 0,0
20.04.2019 05:00:00 7,8 5,8 4,9 13,3 10,0 0 0 5 3 N 1025,3 20 0 0,0
20.04.2019 04:00:00 8,4 5,5 5,2 13,3 10,0 0 0 0 0 N 1025,2 20 0 0,0
20.04.2019 03:00:00 9,9 7,3 7,1 13,3 10,0 0 0 2 1 N 1025,0 20 0 0,0
20.04.2019 02:00:00 10,2 6,5 7,1 13,3 10,0 0 0 4 2 N 1025,4 20 0 0,0
20.04.2019 01:00:00 9,4 6,5 6,2 13,3 10,0 0 0 5 3 N 1025,6 20 0 0,0
20.04.2019 00:00:00 10,7 6,6 6,6 13,3 10,0 2 1 4 2 NW 1025,5 20 0 0,0
19.04.2019 23:00:00 11,1 6,6 7,6 13,2 10,0 3 2 4 2 SSW 1025,2 20 0 0,0
19.04.2019 22:00:00 12,3 6,8 8,9 13,1 10,0 0 0 6 3 N 1025,1 20 0 0,0
19.04.2019 21:00:00 15,9 7,6 12,4 12,9 10,0 3 1 4 2 SSE 1024,4 20 3 0,0
19.04.2019 20:00:00 23,2 4,7 20,0 12,8 10,0 0 0 6 4 N 1023,5 20 60 0,0
19.04.2019 19:00:00 24,1 4,4 26,9 12,6 10,0 5 3 10 5 WNW 1023,3 20 60 0,0
19.04.2019 18:00:00 24,7 3,3 30,3 12,4 9,9 5 3 13 7 SSW 1023,2 20 60 0,0
19.04.2019 17:00:00 24,4 5,7 31,3 12,3 10,0 11 6 19 10 S 1023,3 20 60 0,0
19.04.2019 16:00:00 23,7 5,6 29,4 12,2 9,9 7 4 16 9 W 1023,5 20 60 0,0
19.04.2019 15:00:00 23,5 5,8 28,1 12,1 9,9 6 3 16 9 NNE 1023,9 18 60 0,0
19.04.2019 14:00:00 22,7 4,2 24,3 12,0 9,9 4 2 19 10 W 1024,0 20 60 0,0
19.04.2019 13:00:00 21,9 5,7 27,5 12,0 10,0 5 3 21 11 NW 1024,3 20 60 0,0
19.04.2019 12:00:00 21,9 6,5 26,1 12,0 9,9 6 3 18 10 S 1024,4 20 60 0,0
19.04.2019 11:00:00 20,1 5,7 23,5 12,1 9,9 10 6 19 11 SSE 1024,5 20 60 0,0
19.04.2019 10:00:00 17,8 4,4 18,2 12,2 9,9 13 7 18 10 SSE 1024,5 20 60 0,0
19.04.2019 09:00:00 14,8 4,8 11,3 12,2 10,0 11 6 19 10 SE 1024,1 20 60 0,0
19.04.2019 08:00:00 12,1 3,6 4,5 12,2 9,9 11 6 23 12 SE 1023,8 20 44 0,0
19.04.2019 07:00:00 9,0 4,2 3,2 12,3 9,9 8 4 12 6 E 1023,3 20 0 0,0
19.04.2019 06:00:00 8,1 3,2 3,7 12,3 9,9 0 0 13 7 N 1022,5 20 0 0,0
19.04.2019 05:00:00 12,1 3,6 9,4 12,3 9,9 10 5 20 11 SE 1022,0 20 0 0,0
19.04.2019 04:00:00 13,0 3,6 10,0 12,3 9,9 12 7 19 10 SE 1021,2 20 0 0,0
19.04.2019 03:00:00 13,9 4,2 10,8 12,3 9,9 11 6 19 10 SE 1020,8 20 0 0,0
19.04.2019 02:00:00 15,2 4,8 13,0 12,4 9,9 13 7 22 12 ESE 1020,7 20 0 0,0
19.04.2019 01:00:00 15,6 6,3 13,4 12,3 9,9 13 7 24 13 ESE 1020,2 20 0 0,0
19.04.2019 00:00:00 16,5 6,9 14,1 12,3 9,9 14 8 21 11 ESE 1019,7 20 0 0,0
18.04.2019 23:00:00 17,5 6,7 11,1 12,2 9,9 15 8 22 12 ESE 1019,4 20 0 0,0
18.04.2019 22:00:00 16,5 7,2 11,0 12,2 9,9 9 5 13 7 ENE 1018,7 20 0 0,0
18.04.2019 21:00:00 18,0 7,7 13,5 12,0 9,9 8 4 22 12 ENE 1018,1 20 0 0,0
18.04.2019 20:00:00 21,1 7,0 19,4 11,8 9,9 15 8 27 15 E 1017,3 20 0 0,0
18.04.2019 19:00:00 23,5 6,3 23,1 11,7 9,9 12 6 26 14 ESE 1016,6 20 55 0,0
18.04.2019 18:00:00 24,6 5,4 27,0 11,5 9,9 13 7 27 15 ESE 1016,3 20 60 0,0
18.04.2019 17:00:00 24,2 4,5 28,5 11,4 9,9 15 8 29 16 SE 1016,1 20 60 0,0
18.04.2019 16:00:00 24,5 4,8 27,7 11,3 9,9 19 10 32 17 ESE 1016,4 20 60 0,0
18.04.2019 15:00:00 23,5 3,9 25,9 11,2 9,9 18 10 33 18 ESE 1016,5 20 60 0,0
18.04.2019 14:00:00 22,0 4,1 24,0 11,2 9,9 20 11 34 18 SE 1016,7 20 60 0,0
18.04.2019 13:00:00 21,3 3,5 25,0 11,1 9,9 22 12 39 21 SE 1017,1 20 60 0,0
18.04.2019 12:00:00 19,8 3,0 22,6 11,1 9,9 19 10 33 18 ESE 1017,4 20 60 0,0
18.04.2019 11:00:00 18,0 5,6 19,5 11,1 9,9 17 9 33 18 ESE 1017,6 20 60 0,0
18.04.2019 10:00:00 16,1 5,7 14,1 11,2 9,9 22 12 35 19 ESE 1017,6 20 55 0,0
18.04.2019 09:00:00 13,5 5,9 11,8 11,2 9,9 20 11 30 16 E 1017,6 20 47 0,0
18.04.2019 08:00:00 12,1 7,0 4,8 11,3 9,9 12 7 19 10 E 1017,9 20 44 0,0
18.04.2019 07:00:00 10,3 5,9 4,5 11,3 9,9 7 4 13 7 E 1017,6 20 0 0,0
18.04.2019 06:00:00 9,8 6,3 6,2 11,3 9,9 10 5 19 11 E 1017,3 20 0 0,0
18.04.2019 05:00:00 12,1 7,0 9,8 11,3 9,9 10 6 19 10 E 1017,1 20 0 0,0
18.04.2019 04:00:00 13,0 7,0 11,1 11,2 9,8 10 6 21 11 ESE 1017,1 20 0 0,0
18.04.2019 03:00:00 13,3 7,7 11,6 11,3 9,8 13 7 22 12 ESE 1017,1 20 0 0,0
18.04.2019 02:00:00 13,7 8,1 12,0 11,3 9,9 16 8 22 12 ESE 1017,4 20 0 0,0
18.04.2019 01:00:00 14,2 8,2 11,8 11,2 9,9 16 9 25 14 ESE 1017,2 20 0 0,0
18.04.2019 00:00:00 14,0 8,4 11,4 11,2 9,9 10 5 14 8 E 1016,8 20 0 0,0
17.04.2019 23:00:00 14,6 8,3 11,2 11,1 9,9 12 6 19 11 E 1016,7 20 0 0,0
17.04.2019 22:00:00 14,0 8,4 11,0 11,0 9,9 9 5 14 8 ENE 1016,7 20 0 0,0
17.04.2019 21:00:00 14,6 8,3 11,9 10,9 9,8 8 5 19 10 ENE 1016,4 20 0 0,0
17.04.2019 20:00:00 17,2 8,1 15,6 10,8 9,9 11 6 29 15 E 1016,2 20 0 0,0
17.04.2019 19:00:00 18,6 6,7 18,2 10,6 9,9 21 11 32 18 E 1016,0 20 28 0,0
17.04.2019 18:00:00 20,3 6,6 22,1 10,4 9,9 18 10 34 19 ESE 1015,9 20 57 0,0
17.04.2019 17:00:00 20,3 7,3 24,4 10,3 9,9 20 11 35 19 ESE 1016,1 20 60 0,0
17.04.2019 16:00:00 19,7 7,4 24,6 10,2 9,9 13 7 31 17 E 1016,7 20 60 0,0
17.04.2019 15:00:00 19,3 7,4 23,8 10,0 9,8 13 7 29 16 E 1017,4 20 60 0,0
17.04.2019 14:00:00 18,5 7,3 20,2 10,0 9,8 9 5 28 15 E 1018,1 20 60 -
17.04.2019 13:00:00 16,9 8,3 23,3 9,9 9,8 - - - - - 1018,9 - 60 -
17.04.2019 12:00:00 16,1 10,0 20,5 10,0 9,8 - - - - - 1019,5 20 60 -
17.04.2019 11:00:00 13,2 10,4 15,5 10,0 9,8 8 4 16 9 SE 1019,9 20 60 0,0
17.04.2019 10:00:00 9,1 8,5 10,1 10,0 9,9 12 6 16 9 ESE 1020,3 20 60 0,0
17.04.2019 09:00:00 7,3 6,9 5,8 10,1 9,9 7 4 12 6 E 1020,6 9 43 0,0
17.04.2019 08:00:00 5,3 4,9 4,0 10,1 9,9 3 1 6 3 SE 1021,0 0,4 0 0,0
17.04.2019 07:00:00 4,6 4,2 4,0 10,1 9,9 3 2 8 4 ENE 1020,9 0,4 0 0,0
17.04.2019 06:00:00 5,6 5,2 4,7 10,2 9,9 4 2 7 4 E 1020,6 0,2 0 0,0
17.04.2019 05:00:00 4,9 4,3 4,6 10,2 9,8 0 0 4 2 N 1020,6 0,1 0 0,0
17.04.2019 04:00:00 5,2 4,8 3,4 10,3 9,9 0 0 5 3 N 1020,7 0,1 0 0,0

tt = Température de l'air
td = dewpoint
tt 5cm = Température de l'air 5cm
tt -20cm = Température de l'air -20cm
tt -100cm = Température de l'air -100cm
ff = Vitesse du vent
fx = gusts
dd = Direction du vent
ppp = reduced air pressure
vv = visibility
sd = Ensoleillement
rr = Quantités de précipitations

stations d'obs. à proximité